Orbital Elements at Epoch 2459200.5 (2020-Dec-17.0) TDB
Reference: JPL 17 (heliocentric ecliptic J2000)
Element | Value | Uncertainty (1-sigma) | Units |
e | .2286585040612809 | 4.5152e-08 | |
a | 2.353491895785566 | 8.757e-09 | au |
q | 1.815345959574891 | 1.0901e-07 | au |
i | 2.376898750686302 | 4.5864e-06 | deg |
node | 165.6875125873029 | 8.3215e-05 | deg |
peri | 158.3736987022729 | 8.3582e-05 | deg |
M | 329.6173162436035 | 7.447e-06 | deg |
tp | 2459311.798963548416 (2021-Apr-07.29896355) | 2.7517e-05 | TDB |
period | 1318.765228203187 3.61 | 7.3604e-06 2.015e-08 | d yr |
n | .272982629736529 | 1.5236e-09 | deg/d |
Q | 2.891637831996242 | 1.0759e-08 | au |
|
| | Orbit Determination Parameters
Additional Information
|